Radiation Dose at Monitoring Post of Fukushima Daini Nuclear Power Station
Date,Time,MP-1(microSv/h),MP-2(microSv/h),MP-3(microSv/h),MP-4(microSv/h),MP-5(microSv/h),MP-6(microSv/h),MP-7(microSv/h),Wind Direction,Wind Velocity(m/s),Rain
2014/10/24,00:00,0.614,0.426,0.651,0.589,0.589,0.268,0.234,north,1.8,No
2014/10/24,00:10,0.615,0.425,0.649,0.590,0.589,0.268,0.234,north-northeast,2.5,No
2014/10/24,00:20,0.613,0.426,0.650,0.587,0.590,0.267,0.233,north,1.4,No
2014/10/24,00:30,0.613,0.426,0.650,0.588,0.589,0.269,0.234,north,2.1,No
2014/10/24,00:40,0.614,0.427,0.651,0.588,0.589,0.268,0.235,north-northwest,2.4,No
2014/10/24,00:50,0.615,0.427,0.649,0.588,0.590,0.269,0.235,north-northwest,2.4,No
2014/10/24,01:00,0.615,0.426,0.649,0.588,0.589,0.269,0.234,north-northwest,1.9,No
2014/10/24,01:10,0.613,0.426,0.650,0.587,0.588,0.268,0.235,north,2.8,No
2014/10/24,01:20,0.613,0.426,0.650,0.590,0.587,0.268,0.233,north,2.7,No
2014/10/24,01:30,0.615,0.426,0.650,0.588,0.591,0.267,0.234,north-northwest,2.3,No
2014/10/24,01:40,0.615,0.425,0.650,0.588,0.588,0.267,0.234,north,1.6,No
2014/10/24,01:50,0.614,0.427,0.650,0.588,0.589,0.269,0.234,north-northwest,0.9,No
2014/10/24,02:00,0.614,0.425,0.651,0.587,0.590,0.268,0.234,north,1.7,No
2014/10/24,02:10,0.614,0.427,0.649,0.587,0.589,0.268,0.234,north,1.3,No
2014/10/24,02:20,0.614,0.426,0.651,0.589,0.588,0.268,0.234,north,0.8,No
2014/10/24,02:30,0.615,0.427,0.650,0.589,0.589,0.268,0.233,north-northeast,0.7,No
2014/10/24,02:40,0.615,0.426,0.650,0.588,0.589,0.268,0.235,-,CALM,No
2014/10/24,02:50,0.615,0.427,0.651,0.587,0.588,0.269,0.233,northeast,0.8,No
2014/10/24,03:00,0.615,0.427,0.649,0.588,0.590,0.268,0.234,west-southwest,0.6,No
2014/10/24,03:10,0.614,0.426,0.650,0.588,0.589,0.268,0.235,north-northwest,1.4,No
2014/10/24,03:20,0.613,0.426,0.651,0.589,0.589,0.269,0.233,west-southwest,0.8,No
2014/10/24,03:30,0.612,0.425,0.651,0.588,0.589,0.268,0.234,northwest,0.7,No
2014/10/24,03:40,0.614,0.427,0.648,0.587,0.591,0.268,0.234,north-northwest,1.0,No
2014/10/24,03:50,0.616,0.426,0.651,0.587,0.588,0.268,0.236,north,0.6,No
2014/10/24,04:00,0.615,0.426,0.650,0.588,0.590,0.269,0.234,north-northwest,0.7,No
2014/10/24,04:10,0.613,0.424,0.649,0.587,0.589,0.268,0.234,north-northeast,1.1,No
2014/10/24,04:20,0.615,0.425,0.650,0.589,0.589,0.268,0.234,west,1.0,No
2014/10/24,04:30,0.613,0.426,0.651,0.588,0.588,0.268,0.234,north,1.6,No
2014/10/24,04:40,0.614,0.424,0.650,0.587,0.589,0.268,0.234,northeast,0.7,No
2014/10/24,04:50,0.613,0.426,0.648,0.587,0.590,0.268,0.233,west,1.2,No
2014/10/24,05:00,0.614,0.426,0.650,0.587,0.589,0.268,0.234,west-southwest,1.1,No
2014/10/24,05:10,0.614,0.425,0.649,0.587,0.588,0.269,0.233,-,CALM,No
2014/10/24,05:20,0.615,0.425,0.650,0.588,0.589,0.268,0.235,northwest,0.7,No
2014/10/24,05:30,0.614,0.425,0.650,0.587,0.588,0.267,0.233,-,CALM,No
2014/10/24,05:40,0.613,0.426,0.650,0.588,0.589,0.269,0.235,north,0.9,No
2014/10/24,05:50,0.614,0.425,0.649,0.590,0.589,0.269,0.233,-,CALM,No
2014/10/24,06:00,0.613,0.425,0.649,0.588,0.590,0.269,0.233,north-northeast,0.9,No
2014/10/24,06:10,0.614,0.425,0.651,0.588,0.587,0.268,0.234,north-northeast,2.2,No
2014/10/24,06:20,0.614,0.425,0.650,0.588,0.589,0.268,0.233,north,1.6,No
2014/10/24,06:30,0.614,0.425,0.649,0.587,0.590,0.268,0.233,north,2.1,No
2014/10/24,06:40,0.612,0.427,0.649,0.586,0.589,0.268,0.235,north-northeast,2.2,No
2014/10/24,06:50,0.614,0.425,0.649,0.589,0.589,0.268,0.233,north,2.2,No
2014/10/24,07:00,0.615,0.425,0.650,0.588,0.589,0.268,0.233,north,2.2,No
2014/10/24,07:10,0.613,0.426,0.648,0.587,0.590,0.268,0.234,north,2.5,No
2014/10/24,07:20,0.616,0.425,0.650,0.588,0.588,0.268,0.233,north-northwest,2.5,No
2014/10/24,07:30,0.613,0.425,0.652,0.588,0.589,0.270,0.234,north,2.2,No
2014/10/24,07:40,0.614,0.426,0.649,0.588,0.588,0.268,0.233,northwest,1.8,No
2014/10/24,07:50,0.615,0.427,0.650,0.588,0.590,0.269,0.235,north,1.3,No
2014/10/24,08:00,0.617,0.425,0.651,0.588,0.592,0.269,0.233,northwest,0.7,No
2014/10/24,08:10,0.614,0.426,0.650,0.589,0.590,0.268,0.232,northwest,1.4,No
2014/10/24,08:20,0.616,0.426,0.650,0.589,0.591,0.268,0.234,north-northeast,1.6,No
2014/10/24,08:30,0.614,0.426,0.650,0.589,0.591,0.269,0.233,east-northeast,0.8,No
2014/10/24,08:40,0.614,0.427,0.651,0.590,0.591,0.267,0.234,east,1.1,No
2014/10/24,08:50,0.615,0.427,0.649,0.591,0.591,0.268,0.234,north,1.5,No
2014/10/24,09:00,0.617,0.427,0.651,0.592,0.589,0.267,0.232,northeast,1.1,No
2014/10/24,09:10,0.614,0.426,0.652,0.594,0.590,0.269,0.235,northeast,1.7,No
2014/10/24,09:20,0.614,0.428,0.651,0.593,0.591,0.268,0.233,northeast,1.8,No
2014/10/24,09:30,0.616,0.428,0.649,0.591,0.591,0.267,0.233,northeast,2.2,No
2014/10/24,09:40,0.616,0.428,0.652,0.594,0.591,0.268,0.236,northeast,2.2,No
2014/10/24,09:50,0.617,0.429,0.653,0.595,0.591,0.267,0.235,northeast,2.4,No
2014/10/24,10:00,0.617,0.429,0.651,0.598,0.592,0.268,0.234,northeast,2.3,No
2014/10/24,10:10,0.620,0.430,0.653,0.596,0.594,0.268,0.236,east-northeast,1.9,No
2014/10/24,10:20,0.619,0.429,0.652,0.600,0.593,0.269,0.235,northeast,2.9,No
2014/10/24,10:30,0.619,0.430,0.653,0.600,0.593,0.269,0.233,northeast,3.0,No
2014/10/24,10:40,0.620,0.430,0.652,0.602,0.595,0.269,0.235,northeast,2.9,No
2014/10/24,10:50,0.621,0.431,0.652,0.602,0.592,0.269,0.235,northeast,3.6,No
2014/10/24,11:00,0.619,0.428,0.653,0.600,0.595,0.269,0.234,northeast,3.1,No
2014/10/24,11:10,0.621,0.429,0.653,0.605,0.595,0.269,0.236,northeast,3.3,No
2014/10/24,11:20,0.622,0.431,0.652,0.605,0.596,0.270,0.235,east-northeast,3.1,No
2014/10/24,11:30,0.621,0.433,0.653,0.606,0.595,0.269,0.235,east-northeast,2.4,No
2014/10/24,11:40,0.619,0.433,0.651,0.604,0.597,0.269,0.237,east-northeast,2.9,No
2014/10/24,11:50,0.620,0.432,0.651,0.602,0.597,0.269,0.233,northeast,2.1,No
2014/10/24,12:00,0.620,0.432,0.653,0.602,0.597,0.268,0.236,east-northeast,2.7,No
2014/10/24,12:10,0.622,0.430,0.656,0.605,0.597,0.269,0.235,east-northeast,2.8,No
2014/10/24,12:20,0.623,0.432,0.654,0.605,0.597,0.269,0.234,east,1.8,No
2014/10/24,12:30,0.624,0.433,0.656,0.605,0.599,0.268,0.236,east-northeast,1.7,No
2014/10/24,12:40,0.622,0.433,0.655,0.604,0.597,0.270,0.235,east,1.4,No
2014/10/24,12:50,0.623,0.434,0.657,0.603,0.595,0.270,0.234,-,CALM,No
2014/10/24,13:00,0.621,0.432,0.656,0.606,0.597,0.270,0.237,east,1.6,No
2014/10/24,13:10,0.620,0.433,0.658,0.605,0.597,0.269,0.234,east,1.9,No
2014/10/24,13:20,0.619,0.433,0.656,0.603,0.595,0.269,0.237,east,1.1,No
2014/10/24,13:30,0.620,0.432,0.653,0.603,0.593,0.269,0.236,east,1.6,No
2014/10/24,13:40,0.618,0.431,0.654,0.600,0.596,0.268,0.236,east-northeast,1.2,No
2014/10/24,13:50,0.618,0.433,0.655,0.602,0.596,0.269,0.235,east-northeast,2.2,No
2014/10/24,14:00,0.619,0.431,0.655,0.602,0.596,0.269,0.236,east-southeast,1.8,No
2014/10/24,14:10,0.619,0.431,0.657,0.603,0.594,0.268,0.236,southeast,1.7,No
2014/10/24,14:20,0.618,0.425,0.654,0.604,0.596,0.271,0.235,south-southeast,0.9,No
2014/10/24,14:30,0.620,0.429,0.655,0.599,0.596,0.269,0.236,southeast,1.6,No
2014/10/24,14:40,0.617,0.430,0.647,0.595,0.595,0.269,0.235,southeast,1.1,No
2014/10/24,14:50,0.617,0.430,0.653,0.599,0.594,0.271,0.236,southeast,1.2,No
2014/10/24,15:00,0.616,0.430,0.654,0.601,0.593,0.268,0.235,southeast,1.6,No
2014/10/24,15:10,0.616,0.430,0.650,0.600,0.592,0.269,0.236,south-southeast,1.6,No
2014/10/24,15:20,0.617,0.429,0.650,0.597,0.594,0.269,0.236,south-southeast,1.6,No
2014/10/24,15:30,0.616,0.430,0.650,0.598,0.593,0.270,0.236,south,1.7,No
2014/10/24,15:40,0.618,0.428,0.651,0.598,0.591,0.269,0.235,south,1.4,No
2014/10/24,15:50,0.616,0.430,0.650,0.593,0.592,0.270,0.237,south-southeast,1.1,No
2014/10/24,16:00,0.617,0.428,0.652,0.595,0.594,0.270,0.236,southeast,0.9,No
2014/10/24,16:10,0.615,0.428,0.652,0.595,0.592,0.268,0.237,south-southeast,1.2,No
2014/10/24,16:20,0.616,0.427,0.649,0.593,0.588,0.271,0.235,south,1.4,No
2014/10/24,16:30,0.614,0.427,0.651,0.592,0.592,0.269,0.237,south-southeast,1.7,No
2014/10/24,16:40,0.616,0.425,0.649,0.594,0.589,0.269,0.235,south,1.5,No
2014/10/24,16:50,0.614,0.428,0.650,0.588,0.589,0.268,0.237,south,1.1,No
2014/10/24,17:00,0.617,0.427,0.649,0.590,0.590,0.270,0.237,south-southeast,1.1,No
2014/10/24,17:10,0.616,0.426,0.647,0.589,0.590,0.269,0.238,south-southeast,1.6,No
2014/10/24,17:20,0.614,0.425,0.651,0.589,0.588,0.270,0.236,south,1.4,No
2014/10/24,17:30,0.615,0.427,0.650,0.590,0.591,0.270,0.236,south-southwest,1.1,No
2014/10/24,17:40,0.614,0.427,0.651,0.589,0.590,0.269,0.237,south-southwest,1.8,No
2014/10/24,17:50,0.614,0.427,0.651,0.590,0.590,0.270,0.236,south-southwest,2.2,No
2014/10/24,18:00,0.616,0.427,0.651,0.590,0.588,0.270,0.237,south,1.5,No
2014/10/24,18:10,0.617,0.426,0.652,0.589,0.589,0.270,0.236,south-southwest,1.6,No
2014/10/24,18:20,0.616,0.427,0.651,0.590,0.591,0.270,0.236,south-southwest,1.5,No
2014/10/24,18:30,0.615,0.428,0.651,0.588,0.589,0.271,0.236,south-southwest,1.1,No
2014/10/24,18:40,0.617,0.425,0.651,0.589,0.588,0.270,0.236,south-southwest,1.0,No
2014/10/24,18:50,0.615,0.426,0.650,0.588,0.589,0.268,0.236,south-southwest,0.9,No
2014/10/24,19:00,0.616,0.426,0.652,0.589,0.590,0.270,0.234,south-southwest,1.6,No
2014/10/24,19:10,0.617,0.427,0.651,0.589,0.589,0.270,0.236,south-southwest,1.9,No
2014/10/24,19:20,0.617,0.427,0.651,0.590,0.588,0.270,0.237,south,0.6,No
2014/10/24,19:30,0.615,0.426,0.653,0.589,0.588,0.269,0.236,south-southwest,1.9,No
2014/10/24,19:40,0.614,0.425,0.649,0.589,0.588,0.269,0.236,south,1.9,No
2014/10/24,19:50,0.617,0.426,0.650,0.589,0.590,0.270,0.236,south-southwest,3.0,No
2014/10/24,20:00,0.616,0.429,0.651,0.590,0.589,0.269,0.235,south-southwest,3.2,No
2014/10/24,20:10,0.615,0.427,0.650,0.591,0.589,0.269,0.236,south-southwest,2.3,No
2014/10/24,20:20,0.617,0.426,0.651,0.589,0.591,0.271,0.236,south-southwest,1.8,No
2014/10/24,20:30,0.616,0.427,0.650,0.588,0.591,0.270,0.237,south-southwest,1.4,No
2014/10/24,20:40,0.614,0.427,0.651,0.591,0.590,0.270,0.236,south-southwest,1.8,No
2014/10/24,20:50,0.615,0.427,0.650,0.590,0.589,0.270,0.236,south-southwest,2.2,No
2014/10/24,21:00,0.617,0.426,0.650,0.590,0.588,0.270,0.236,south-southwest,3.1,No
2014/10/24,21:10,0.617,0.426,0.651,0.591,0.589,0.269,0.236,south-southwest,2.9,No
2014/10/24,21:20,0.616,0.427,0.651,0.589,0.590,0.270,0.238,south-southwest,3.1,No
2014/10/24,21:30,0.617,0.425,0.650,0.589,0.589,0.270,0.236,south-southwest,3.3,No
2014/10/24,21:40,0.615,0.426,0.652,0.589,0.591,0.269,0.237,south-southwest,3.9,No
2014/10/24,21:50,0.615,0.427,0.651,0.591,0.590,0.270,0.234,south-southwest,4.1,No
2014/10/24,22:00,0.616,0.426,0.651,0.588,0.589,0.270,0.237,south-southwest,4.1,No
2014/10/24,22:10,0.617,0.427,0.651,0.590,0.589,0.269,0.236,south-southwest,4.6,No
2014/10/24,22:20,0.613,0.426,0.652,0.590,0.590,0.270,0.236,south-southwest,5.0,No
2014/10/24,22:30,0.615,0.426,0.650,0.589,0.590,0.270,0.236,south-southwest,4.7,No
2014/10/24,22:40,0.614,0.426,0.652,0.590,0.590,0.269,0.235,south-southwest,4.5,No
2014/10/24,22:50,0.615,0.427,0.650,0.590,0.589,0.271,0.237,south-southwest,4.8,No
2014/10/24,23:00,0.617,0.427,0.650,0.591,0.590,0.269,0.238,south-southwest,4.9,No
2014/10/24,23:10,0.614,0.427,0.652,0.590,0.588,0.271,0.236,south-southwest,4.4,No
2014/10/24,23:20,0.615,0.427,0.650,0.590,0.590,0.270,0.238,south-southwest,4.5,No
2014/10/24,23:30,0.617,0.426,0.651,0.591,0.588,0.270,0.237,south-southwest,4.3,No
2014/10/24,23:40,0.615,0.424,0.651,0.592,0.589,0.270,0.236,south-southwest,4.7,No
2014/10/24,23:50,0.615,0.427,0.651,0.592,0.591,0.269,0.238,south-southwest,4.2,No
